Home > Weather > Trieste > Past weeks

Flag for Italy Weather for the Past 2 Weeks in Trieste, Italy

Now
52 °F

Light rain. Overcast.


Feels Like: 51 °F
Forecast: 44 / 51 °F
Wind: 5 mph from Northeast

Location: Trieste

Current Time: Feb 14, 2016 at 4:25:21 PM

Latest Report: Feb 14, 2016 at 3:00 PM


Visibility: 1 mi

Pressure: 29.26 "Hg

Humidity: 86%

Dew point: 48 °F

Location of TriesteLocation

Historic Weather in Trieste — Graph

°F

Trieste Temperature Yesterday

Maximum temperature yesterday: 52 °F (at 3:00 PM)
Minimum temperature yesterday: 43 °F (at 8:00 AM)
Average temperature yesterday: 46 °F

High & Low Weather Summary for the Past Weeks

 TemperatureHumidityPressure
High57 °F (Feb 9, 6:00 PM)100% (Jan 30, 3:00 PM)30.41 "Hg (Jan 30, 3:00 PM)
Low38 °F (Feb 4, 7:00 AM)51% (Feb 11, 7:00 PM)29.23 "Hg (Feb 10, 5:00 AM)
Average48 °F84%29.94 "Hg
* Reported Jan 30 3:00 PM — Feb 14 3:00 PM, Trieste, Weather by CustomWeather, © 2016

Note: Actual official high and low records may vary slightly from our data, if they occured in-between our weather recording intervals... More about our weather records

Advertising

Trieste Weather History for the Previous 24 Hours

 ConditionsComfort  
Time TempWeatherWind HumidityBarometerVisibility
3:00 PM
Sun, Feb 14
52 °FLight rain. Overcast.5 mph86%29.26 "Hg1 mi
2:00 PM51 °FLight rain. Overcast.3 mph96%29.29 "Hg1 mi
1:00 PM50 °FLight rain. Overcast.No wind98%29.32 "Hg1 mi
12:00 PM50 °FLight rain. Overcast.No wind98%29.38 "Hg1 mi
11:00 AM50 °FLight rain. Overcast.1 mph88%29.38 "Hg6 mi
10:00 AM49 °FLight rain. Overcast.No wind98%29.38 "Hg6 mi
9:00 AM48 °FOvercast.No wind98%29.38 "Hg6 mi
8:00 AM48 °FOvercast.No wind99%29.38 "Hg6 mi
7:00 AM48 °FOvercast.No wind100%29.41 "Hg6 mi
6:00 AM47 °FOvercast.No wind100%29.41 "Hg6 mi
9:00 PM
Sat, Feb 13
46 °FOvercast.1 mph85%29.50 "Hg12 mi
8:00 PM46 °FOvercast.No wind86%29.50 "Hg12 mi
7:00 PM46 °FOvercast.No wind85%29.44 "Hg6 mi
6:00 PM46 °FOvercast.No wind84%29.44 "Hg6 mi
5:00 PM46 °FOvercast.No wind83%29.44 "Hg6 mi
4:00 PM48 °FPartly sunny.3 mph81%29.44 "Hg6 mi
Weather by CustomWeather, © 2016

See weather overviewHow to use our weather pages